Regional Weather Roundup
Issued by NWS

Home | Current Version | Previous Version | Graphics & Text | Print | Product List | Glossary Off
Versions: 1 2 3 4 5 6 7 8 9 10 11 12 13 14 15 16 17 18 19 20 21 22 23 24 25 26 27 28 29 30 31 32 33 34 35 36 37 38 39 40 41 42 43 44 45 46 47 48 49 50

000
ASUS43 KTOP 281759
RWRKS

WEATHER ROUNDUP FOR KANSAS
NATIONAL WEATHER SERVICE GOODLAND KS
100 PM CDT THU MAY 28 2015

NOTE:  "FAIR" INDICATES FEW OR NO CLOUDS BELOW 12,000 FEET WITH NO
SIGNIFICANT WEATHER AND/OR OBSTRUCTIONS TO VISIBILITY.

KSZ001>006-013>018-027>032-041>047-281900-
NORTHWEST KANSAS

CITY           SKY/WX    TMP DP  RH WIND       PRES   REMARKS
GOODLAND       PTSUNNY   70  59  68 S13       30.00F
6HR MIN TEMP:  59; 6HR MAX TEMP:  71;

HAYS           CLOUDY    72  59  64 E10G16    30.02F
HILL CITY      CLOUDY    74  60  61 SE9       30.01F
6HR MIN TEMP:  57; 6HR MAX TEMP:  74;

RUSSELL        CLOUDY    72  63  73 SE12      30.01F
6HR MIN TEMP:  61; 6HR MAX TEMP:  72; 6HR PCP: TRACE;

$$

KSZ061>065-074>080-084>089-281900-
SOUTHWEST KANSAS

CITY           SKY/WX    TMP DP  RH WIND       PRES   REMARKS
DODGE CITY     MOSUNNY   76  59  55 E7        30.03S
6HR MIN TEMP:  61; 6HR MAX TEMP:  76; 6HR PCP: TRACE;

ELKHART          N/A     75  59  57 S17         N/A
GARDEN CITY    PTSUNNY   73  56  54 S23G31    30.02S
6HR MIN TEMP:  58; 6HR MAX TEMP:  74;

GREAT BEND     CLOUDY    72  61  68 E9        30.01F
LIBERAL        PTSUNNY   72  59  64 S17G26    30.03F
$$

KSZ066>073-081>083-090>101-281900-
SOUTHEAST KANSAS

CITY           SKY/WX    TMP DP  RH WIND       PRES   REMARKS
CHANUTE        LGT RAIN  66  65  96 S12       30.12S
6HR MIN TEMP:  65; 6HR MAX TEMP:  68; 6HR PCP:  0.23;

COFFEYVILLE    LGT RAIN  68  65  90 CALM      30.12S FOG
6HR MIN TEMP:  66; 6HR MAX TEMP:  69; 6HR PCP:  1.09;

HUTCHINSON     CLOUDY    73  64  73 SE14G21   30.02F
6HR MIN TEMP:  64; 6HR MAX TEMP:  73;

MEDICINE LODGE   N/A     74  64  71 SE9G17    30.00F
NEWTON         CLOUDY    68  63  83 SE14G20   30.07F
PARSONS        LGT RAIN  67  66  97 CALM      30.14S
6HR MIN TEMP:  66; 6HR MAX TEMP:  69; 6HR PCP:  0.60;

WICHITA INTL   CLOUDY    69  63  81 SE21G28   30.05S
6HR MIN TEMP:  65; 6HR MAX TEMP:  70;

WICHITA JABRA  CLOUDY    69  64  84 SE18      30.05S
6HR MIN TEMP:  63; 6HR MAX TEMP:  69; 6HR PCP: TRACE;

WINFIELD       CLOUDY    70  64  81 SE13      30.09S
6HR MIN TEMP:  65; 6HR MAX TEMP:  70; 6HR PCP:  0.01;

$$

KSZ007>012-019>026-033>040-048>060-102>105-281900-
NORTHEAST KANSAS

CITY           SKY/WX    TMP DP  RH WIND       PRES   REMARKS
CONCORDIA      CLOUDY    75  64  68 S16G24    30.02F
6HR MIN TEMP:  62; 6HR MAX TEMP:  76; 6HR PCP: TRACE;

EMPORIA        CLOUDY    69  65  86 S15G23    30.06S
6HR MIN TEMP:  65; 6HR MAX TEMP:  69; 6HR PCP:  0.31;

LAWRENCE       LGT RAIN  70  65  84 SE9       30.09R
6HR MIN TEMP:  63; 6HR MAX TEMP:  70; 6HR PCP:  0.08;

MANHATTAN      CLOUDY    74  63  68 S17G25    30.03F
6HR MIN TEMP:  63; 6HR MAX TEMP:  74; 6HR PCP:  0.04;

OLATHE IND     CLOUDY    70  64  81 SE14      30.11R
6HR MIN TEMP:  63; 6HR MAX TEMP:  71; 6HR PCP:  0.02;

OLATHE EXE     TSTM      69  64  84 S15G25    30.10R
6HR MIN TEMP:  64; 6HR MAX TEMP:  71; 6HR PCP:  0.01;

SALINA         CLOUDY    73  65  75 S12       30.04S
6HR MIN TEMP:  64; 6HR MAX TEMP:  74;

TOPEKA BILLARD CLOUDY    70  65  84 SE12      30.06F
6HR MIN TEMP:  64; 6HR MAX TEMP:  70; 6HR PCP:  0.06;

TOPEKA FORBES  LGT RAIN  69  65  86 SE10      30.06F
6HR MIN TEMP:  65; 6HR MAX TEMP:  70; 6HR PCP:  0.03;

$$



USA.gov is the U.S. government's official web portal to all federal, state and local government web resources and services.